Quincy, IL

8:15 AM CST on November 18, 2019 (GMT -0600)
Quincy Regional-Baldwin

Weather History for KUIN - September, 2019

Change the Weather History Date:

Sunday, September 8, 2019

  Actual Average Record
Temperature  
Mean Temperature 66 °F 70 °F  
Max Temperature 71 °F 80 °F 102 °F (1947)
Min Temperature 61 °F 59 °F 40 °F (1986)
Degree Days  
Heating Degree Days 0 1  
Month to date heating degree days 0 7  
Since 1 July heating degree days 2 12  
Cooling Degree Days 1 6  
Month to date cooling degree days 43 52  
Year to date cooling degree days 1100 1005  
Growing Degree Days 16 (Base 50)    
Moisture  
Dew Point 63 °F    
Average Humidity 86    
Maximum Humidity 93    
Minimum Humidity 76    
Precipitation  
Precipitation 0.68 in 0.12 in 1.88 in (1989)
Month to date precipitation 0.68 0.89  
Year to date precipitation 31.71 26.64  
Sea Level Pressure  
Sea Level Pressure 30.02 in    
Wind  
Wind Speed 8 mph ()    
Max Wind Speed 40 mph    
Max Gust Speed 58 mph    
Visibility 8.7 miles    
Events Rain , Thunderstorm    
T = Trace of Precipitation, MM = Missing Value Source: Averaged Metar Reports

Daily Weather History Graph

Daily Weather History Graph

Search for Another Location

Airport or City:

Astronomy

Sep. 08, 2019 Rise Set
Actual Time 6:38 AM CDT 7:25 PM CDT
Civil Twilight 6:11 AM CDT 7:52 PM CDT
Nautical Twilight 5:39 AM CDT 8:24 PM CDT
Astronomical Twilight 5:05 AM CDT 8:58 PM CDT
Moon 4:34 PM CDT (9/8) 1:19 AM CDT (9/8)
Length of Visible Light 13h 41m
Length of Day
12h 46m
Waxing Gibbous, 75% of the Moon is Illuminated
Sep 8
Waxing Gibbous
Sep 13
Full
Sep 21
Last Quarter
Sep 28
New
Oct 5
First Quarter

Hourly Weather History & Observations

Time (CDT) Temp. Dew Point Humidity Pressure Visibility Wind Dir Wind Speed Gust Speed Precip Events Conditions
12:54 AM 66.9 °F 60.1 °F 79% 29.99 in 10.0 mi SSE 5.8 mph - N/A   Scattered Clouds
1:54 AM 66.0 °F 60.1 °F 81% 29.97 in 10.0 mi ESE 9.2 mph - N/A   Mostly Cloudy
2:54 AM 68.0 °F 60.1 °F 76% 29.96 in 10.0 mi SSE 8.1 mph - 0.00 in Rain Light Rain
3:05 AM 66.9 °F 60.1 °F 79% 29.98 in 10.0 mi SSE 9.2 mph - 0.00 in Rain , Thunderstorm Light Rain
3:15 AM 66.9 °F 60.1 °F 79% 29.98 in 10.0 mi SSE 10.4 mph - 0.00 in Rain , Thunderstorm Light Thunderstorms and Rain
3:30 AM 66.0 °F 61.0 °F 84% 30.00 in 8.0 mi SE 4.6 mph - 0.02 in Rain , Thunderstorm Rain
3:54 AM 64.0 °F 61.0 °F 90% 30.12 in 3.0 mi NNW 15.0 mph 57.5 mph 0.15 in Rain , Thunderstorm Heavy Thunderstorms and Rain
3:57 AM 64.0 °F 62.1 °F 93% 30.13 in 1.8 mi NNW 12.7 mph 57.5 mph 0.09 in Rain , Thunderstorm Heavy Thunderstorms and Rain
4:16 AM 62.1 °F 59.0 °F 90% 30.10 in 4.0 mi NE 17.3 mph - 0.21 in Rain , Thunderstorm Thunderstorms and Rain
4:54 AM 61.0 °F 57.9 °F 90% 30.01 in 5.0 mi East 15.0 mph - 0.33 in Rain , Thunderstorm Rain
5:25 AM 61.0 °F 57.0 °F 87% 29.94 in 10.0 mi ESE 20.7 mph 31.1 mph 0.07 in Rain Light Rain
6:54 AM 62.1 °F 57.9 °F 86% 29.99 in 10.0 mi SSE 9.2 mph - 0.00 in   Partly Cloudy
7:54 AM 63.0 °F 57.9 °F 84% 29.98 in 10.0 mi SE 9.2 mph - N/A   Mostly Cloudy
8:54 AM 64.0 °F 60.1 °F 87% 29.99 in 10.0 mi SSE 10.4 mph - N/A   Overcast
9:54 AM 64.9 °F 62.1 °F 90% 30.03 in 10.0 mi Calm Calm - 0.01 in   Overcast
10:13 AM 66.0 °F 62.1 °F 87% 30.05 in 10.0 mi SSE 5.8 mph - N/A   Overcast
10:36 AM 64.9 °F 62.1 °F 90% 30.05 in 2.5 mi SSE 6.9 mph - 0.06 in Rain Rain
10:54 AM 64.9 °F 62.1 °F 90% 30.04 in 3.0 mi ESE 5.8 mph - 0.11 in Rain Rain
11:54 AM 66.9 °F 63.0 °F 87% 30.02 in 10.0 mi ESE 9.2 mph - 0.00 in   Overcast
12:54 PM 68.0 °F 64.0 °F 87% 30.01 in 10.0 mi ESE 6.9 mph - N/A   Overcast
1:54 PM 68.0 °F 64.0 °F 87% 30.00 in 10.0 mi ESE 6.9 mph - N/A   Overcast
2:09 PM 68.0 °F 64.0 °F 87% 30.01 in 10.0 mi ESE 6.9 mph - N/A   Overcast
2:54 PM 69.1 °F 64.9 °F 87% 30.00 in 10.0 mi East 6.9 mph - N/A   Overcast
3:54 PM 70.0 °F 64.9 °F 84% 29.99 in 10.0 mi East 8.1 mph - N/A   Overcast
4:41 PM 70.0 °F 64.9 °F 84% 30.00 in 10.0 mi East 8.1 mph - N/A   Overcast
4:54 PM 70.0 °F 64.9 °F 84% 30.00 in 10.0 mi ESE 9.2 mph - N/A   Overcast
5:49 PM 71.6 °F 66.2 °F 83% 30.00 in 10.0 mi ESE 10.4 mph - N/A   Overcast
5:54 PM 71.1 °F 66.0 °F 84% 29.99 in 10.0 mi East 10.4 mph - N/A   Mostly Cloudy
6:03 PM 71.1 °F 66.0 °F 84% 30.00 in 10.0 mi East 8.1 mph - N/A   Mostly Cloudy
6:15 PM 70.0 °F 66.0 °F 87% 30.01 in 10.0 mi East 8.1 mph - N/A   Mostly Cloudy
6:54 PM 70.0 °F 64.9 °F 84% 30.01 in 10.0 mi East 6.9 mph - N/A   Overcast
7:54 PM 69.1 °F 64.9 °F 87% 30.01 in 9.0 mi East 8.1 mph - N/A   Overcast
8:54 PM 66.9 °F 64.9 °F 93% 30.04 in 9.0 mi East 8.1 mph - N/A   Overcast
9:52 PM 68.0 °F 64.4 °F 88% 30.07 in 8.0 mi East 8.1 mph - N/A   Mostly Cloudy
9:54 PM 68.0 °F 64.9 °F 90% 30.06 in 8.0 mi ENE 9.2 mph - N/A   Mostly Cloudy
10:54 PM 68.0 °F 64.9 °F 90% 30.06 in 10.0 mi East 6.9 mph - N/A   Overcast
11:54 PM 68.0 °F 64.9 °F 90% 30.05 in 10.0 mi ESE 9.2 mph - N/A   Scattered Clouds